| time (UTC) | temp F | wind direction | speed knots | gust knots | rain 1hr in | rain 24hr in | rain mn in | humidity % | barometer mb |
| 20260502170514 | 55 | 0 | 0.0 | 5.2 | 0.00 | 0.18 | 0.00 | 86 | 1011.9 |
| 20260502164011 | 54 | 47 | 0.9 | 3.5 | 0.00 | 0.17 | 0.00 | 86 | 1011.9 |
| 20260502163513 | 54 | 45 | 0.9 | 3.5 | 0.00 | 0.17 | 0.00 | 86 | 1012.0 |
| 20260502163036 | 54 | 52 | 0.0 | 2.6 | 0.00 | 0.17 | 0.00 | 86 | 1012.0 |
| 20260502162508 | 54 | 55 | 0.0 | 3.5 | 0.00 | 0.17 | 0.00 | 86 | 1012.0 |
| 20260502162012 | 54 | 52 | 0.0 | 4.3 | 0.00 | 0.17 | 0.00 | 86 | 1012.1 |
| 20260502161543 | 54 | 53 | 0.9 | 4.3 | 0.00 | 0.17 | 0.00 | 86 | 1012.2 |
| 20260502161017 | 54 | 53 | 0.0 | 3.5 | 0.00 | 0.17 | 0.00 | 86 | 1012.2 |
| 20260502160510 | 54 | 0 | 0.0 | 3.5 | 0.00 | 0.17 | 0.00 | 86 | 1012.2 |
| 20260502152011 | 55 | 0 | 0.0 | 2.6 | 0.00 | 0.17 | 0.00 | 87 | 1012.1 |
| 20260502151528 | 55 | 0 | 0.0 | 2.6 | 0.00 | 0.17 | 0.00 | 87 | 1012.1 |
| 20260502151010 | 55 | 0 | 0.0 | 2.6 | 0.00 | 0.17 | 0.00 | 87 | 1012.2 |
| 20260502150510 | 55 | 46 | 0.0 | 1.7 | 0.00 | 0.17 | 0.00 | 87 | 1012.3 |
| 20260502130508 | 58 | 48 | 0.0 | 3.5 | 0.00 | 0.17 | 0.17 | 88 | 1012.8 |
| 20260502123515 | 58 | 0 | 0.9 | 3.5 | 0.00 | 0.17 | 0.17 | 88 | 1013.0 |
| 20260502123056 | 58 | 48 | 0.9 | 3.5 | 0.00 | 0.17 | 0.17 | 88 | 1013.0 |
| 20260502122509 | 58 | 0 | 0.0 | 3.5 | 0.00 | 0.17 | 0.17 | 88 | 1012.9 |
| 20260502122015 | 58 | 0 | 0.0 | 7.0 | 0.00 | 0.17 | 0.17 | 88 | 1012.9 |
| 20260502121528 | 58 | 0 | 0.0 | 7.0 | 0.00 | 0.17 | 0.17 | 88 | 1012.8 |
| 20260502121010 | 59 | 61 | 0.9 | 4.3 | 0.00 | 0.17 | 0.17 | 88 | 1012.8 |
| 20260502120508 | 59 | 57 | 0.0 | 4.3 | 0.00 | 0.17 | 0.17 | 88 | 1012.9 |
| 20260502115513 | 59 | 59 | 0.9 | 4.3 | 0.00 | 0.17 | 0.17 | 88 | 1012.7 |
| 20260502115015 | 59 | 59 | 0.0 | 3.5 | 0.00 | 0.17 | 0.17 | 88 | 1012.7 |
| 20260502114527 | 59 | 0 | 0.9 | 4.3 | 0.00 | 0.17 | 0.17 | 88 | 1012.6 |
| 20260502114008 | 59 | 0 | 0.0 | 4.3 | 0.00 | 0.17 | 0.17 | 88 | 1012.6 |
| 20260502113508 | 59 | 60 | 0.0 | 4.3 | 0.00 | 0.17 | 0.17 | 88 | 1012.7 |
| 20260502113030 | 59 | 0 | 0.9 | 2.6 | 0.00 | 0.17 | 0.17 | 88 | 1012.8 |
| 20260502112511 | 59 | 69 | 0.9 | 2.6 | 0.00 | 0.17 | 0.17 | 88 | 1012.6 |
| 20260502112012 | 59 | 0 | 0.0 | 7.0 | 0.00 | 0.17 | 0.17 | 88 | 1012.6 |
| 20260502111532 | 59 | 0 | 0.0 | 7.0 | 0.00 | 0.17 | 0.17 | 88 | 1012.4 |
| 20260502111008 | 59 | 0 | 0.0 | 7.0 | 0.00 | 0.17 | 0.17 | 88 | 1012.3 |
| 20260502110510 | 59 | 75 | 0.0 | 7.0 | 0.00 | 0.17 | 0.17 | 88 | 1012.4 |
| 20260502110037 | 59 | 0 | 1.7 | 7.0 | 0.00 | 0.17 | 0.17 | 88 | 1012.3 |
| 20260502105509 | 59 | 0 | 1.7 | 4.3 | 0.00 | 0.17 | 0.17 | 88 | 1012.1 |
| 20260502105009 | 59 | 49 | 0.9 | 4.3 | 0.00 | 0.17 | 0.17 | 88 | 1012.2 |
| 20260502104525 | 59 | 49 | 0.9 | 4.3 | 0.00 | 0.17 | 0.17 | 88 | 1012.2 |
| 20260502104009 | 59 | 51 | 1.7 | 4.3 | 0.00 | 0.17 | 0.17 | 88 | 1012.1 |
| 20260502103510 | 59 | 52 | 1.7 | 4.3 | 0.00 | 0.17 | 0.17 | 88 | 1012.0 |
| 20260502103032 | 59 | 53 | 0.0 | 7.8 | 0.00 | 0.17 | 0.17 | 88 | 1012.1 |
| 20260502102510 | 59 | 48 | 1.7 | 7.8 | 0.00 | 0.17 | 0.17 | 88 | 1012.1 |
| 20260502102017 | 59 | 322 | 0.0 | 4.3 | 0.00 | 0.17 | 0.17 | 88 | 1012.0 |
| 20260502101527 | 59 | 321 | 0.9 | 4.3 | 0.00 | 0.17 | 0.17 | 88 | 1012.0 |
| 20260502101015 | 59 | 321 | 0.0 | 4.3 | 0.00 | 0.17 | 0.17 | 88 | 1011.8 |
| 20260502100509 | 59 | 321 | 0.9 | 4.3 | 0.00 | 0.17 | 0.17 | 88 | 1011.9 |
| 20260502091528 | 59 | 0 | 0.0 | 2.6 | 0.00 | 0.17 | 0.17 | 87 | 1011.7 |
| 20260502091010 | 59 | 0 | 0.0 | 2.6 | 0.00 | 0.17 | 0.17 | 87 | 1011.6 |
| 20260502090508 | 59 | 315 | 0.0 | 2.6 | 0.00 | 0.17 | 0.17 | 87 | 1011.7 |
| 20260502071531 | 60 | 305 | 0.0 | 4.3 | 0.03 | 0.17 | 0.17 | 86 | 1011.3 |
| 20260502071008 | 60 | 0 | 0.0 | 4.3 | 0.03 | 0.17 | 0.17 | 86 | 1011.2 |
| 20260502070511 | 60 | 0 | 0.9 | 4.3 | 0.03 | 0.17 | 0.17 | 86 | 1011.4 |
| 20260502070030 | 60 | 0 | 0.0 | 3.5 | 0.03 | 0.17 | 0.17 | 86 | 1011.4 |
| 20260502065513 | 60 | 0 | 0.0 | 3.5 | 0.03 | 0.17 | 0.17 | 86 | 1011.4 |
| 20260502065014 | 60 | 302 | 0.0 | 3.5 | 0.03 | 0.17 | 0.17 | 86 | 1011.4 |
| 20260502064533 | 60 | 300 | 0.0 | 2.6 | 0.02 | 0.16 | 0.16 | 86 | 1011.3 |
| 20260502064010 | 60 | 301 | 0.0 | 3.5 | 0.01 | 0.15 | 0.15 | 86 | 1011.2 |
| 20260502063511 | 60 | 0 | 0.0 | 3.5 | 0.02 | 0.15 | 0.15 | 85 | 1011.2 |
| 20260502063039 | 60 | 0 | 0.0 | 2.6 | 0.01 | 0.14 | 0.14 | 85 | 1011.4 |
| 20260502062510 | 61 | 300 | 0.0 | 2.6 | 0.01 | 0.14 | 0.14 | 85 | 1011.2 |
| 20260502062013 | 61 | 0 | 0.0 | 2.6 | 0.00 | 0.14 | 0.14 | 85 | 1011.1 |
| 20260502061531 | 61 | 0 | 0.0 | 0.9 | 0.00 | 0.14 | 0.14 | 85 | 1011.0 |
| 20260502061010 | 61 | 0 | 0.0 | 3.5 | 0.00 | 0.14 | 0.14 | 85 | 1010.9 |
| 20260502060510 | 61 | 0 | 0.0 | 3.5 | 0.00 | 0.14 | 0.14 | 85 | 1011.0 |
| 20260502060028 | 61 | 0 | 0.0 | 3.5 | 0.01 | 0.14 | 0.14 | 85 | 1010.9 |
| 20260502055512 | 61 | 0 | 0.0 | 2.6 | 0.01 | 0.14 | 0.14 | 85 | 1011.1 |
| 20260502055010 | 61 | 0 | 0.0 | 6.1 | 0.02 | 0.14 | 0.14 | 85 | 1011.2 |
| 20260502054530 | 61 | 0 | 0.9 | 7.0 | 0.03 | 0.14 | 0.14 | 85 | 1011.2 |
| 20260502054010 | 62 | 306 | 0.9 | 7.0 | 0.03 | 0.14 | 0.14 | 85 | 1011.0 |
| 20260502053510 | 62 | 301 | 2.6 | 8.7 | 0.03 | 0.13 | 0.13 | 84 | 1011.2 |
| 20260502053027 | 62 | 309 | 1.7 | 8.7 | 0.04 | 0.13 | 0.13 | 84 | 1011.1 |
| 20260502052513 | 62 | 304 | 1.7 | 8.7 | 0.05 | 0.13 | 0.13 | 84 | 1011.0 |
| 20260502052012 | 62 | 298 | 1.7 | 4.3 | 0.06 | 0.13 | 0.13 | 84 | 1011.0 |
| 20260502051532 | 62 | 0 | 1.7 | 6.1 | 0.07 | 0.13 | 0.13 | 84 | 1010.8 |
| 20260502051010 | 62 | 0 | 0.9 | 6.1 | 0.07 | 0.13 | 0.13 | 84 | 1010.5 |
| 20260502050510 | 63 | 295 | 1.7 | 7.8 | 0.07 | 0.13 | 0.13 | 83 | 1010.7 |
| 20260502050034 | 63 | 0 | 0.0 | 7.8 | 0.07 | 0.12 | 0.12 | 83 | 1010.8 |
| 20260502045512 | 63 | 297 | 2.6 | 7.8 | 0.07 | 0.12 | 0.12 | 83 | 1011.1 |
| 20260502045012 | 63 | 0 | 0.0 | 7.0 | 0.06 | 0.11 | 0.11 | 82 | 1010.4 |
| 20260502044529 | 63 | 0 | 0.0 | 7.0 | 0.04 | 0.10 | 0.10 | 82 | 1010.7 |
| 20260502044010 | 63 | 300 | 0.9 | 3.5 | 0.04 | 0.10 | 0.10 | 82 | 1010.9 |
| 20260502043511 | 63 | 0 | 0.0 | 3.5 | 0.03 | 0.08 | 0.08 | 81 | 1010.7 |
| 20260502043028 | 63 | 299 | 0.9 | 4.3 | 0.02 | 0.07 | 0.07 | 81 | 1011.0 |
| 20260502042509 | 64 | 299 | 0.9 | 4.3 | 0.02 | 0.07 | 0.07 | 81 | 1011.2 |
| 20260502042015 | 64 | 297 | 0.9 | 3.5 | 0.02 | 0.07 | 0.07 | 80 | 1010.9 |
| 20260502041531 | 64 | 296 | 0.9 | 3.5 | 0.02 | 0.06 | 0.06 | 80 | 1010.6 |
| 20260502041014 | 64 | 295 | 0.0 | 2.6 | 0.02 | 0.05 | 0.05 | 79 | 1011.0 |
| 20260502040509 | 64 | 0 | 0.0 | 2.6 | 0.04 | 0.05 | 0.05 | 79 | 1010.7 |
| 20260502040027 | 64 | 0 | 0.0 | 2.6 | 0.05 | 0.05 | 0.05 | 79 | 1010.7 |
| 20260502035511 | 64 | 294 | 0.0 | 2.6 | 0.05 | 0.05 | 0.05 | 78 | 1010.8 |
| 20260502035010 | 64 | 0 | 0.9 | 6.1 | 0.05 | 0.05 | 0.05 | 77 | 1010.9 |
| 20260502034526 | 64 | 0 | 0.9 | 7.0 | 0.05 | 0.05 | 0.05 | 76 | 1011.0 |
| 20260502034010 | 64 | 297 | 1.7 | 7.0 | 0.05 | 0.05 | 0.05 | 76 | 1011.3 |
| 20260502033514 | 65 | 288 | 1.7 | 4.3 | 0.05 | 0.05 | 0.05 | 75 | 1011.1 |
| 20260502033031 | 65 | 0 | 1.7 | 7.8 | 0.05 | 0.05 | 0.05 | 74 | 1011.1 |
| 20260502032507 | 65 | 291 | 0.9 | 7.8 | 0.05 | 0.05 | 0.05 | 73 | 1010.9 |
| 20260502032012 | 66 | 288 | 2.6 | 8.7 | 0.04 | 0.04 | 0.04 | 72 | 1011.0 |
| 20260502031526 | 66 | 289 | 3.5 | 8.7 | 0.03 | 0.03 | 0.03 | 71 | 1011.0 |
| 20260502031009 | 67 | 288 | 2.6 | 10.4 | 0.03 | 0.03 | 0.03 | 70 | 1011.0 |
| 20260502030510 | 67 | 297 | 2.6 | 10.4 | 0.00 | 0.00 | 0.00 | 69 | 1011.1 |
| 20260502030032 | 68 | 312 | 4.3 | 10.4 | 0.00 | 0.00 | 0.00 | 68 | 1011.3 |
| 20260502025510 | 68 | 300 | 3.5 | 10.4 | 0.00 | 0.00 | 0.00 | 68 | 1010.9 |
| 20260502025007 | 68 | 278 | 2.6 | 9.6 | 0.00 | 0.00 | 0.00 | 69 | 1010.8 |
| 20260502024528 | 68 | 302 | 4.3 | 9.6 | 0.00 | 0.00 | 0.00 | 69 | 1010.6 |
| 20260502024008 | 68 | 296 | 2.6 | 7.8 | 0.00 | 0.00 | 0.00 | 70 | 1010.4 |
| 20260502023508 | 68 | 293 | 1.7 | 7.8 | 0.00 | 0.00 | 0.00 | 70 | 1010.6 |
| 20260502023026 | 68 | 290 | 2.6 | 7.8 | 0.00 | 0.00 | 0.00 | 70 | 1010.6 |
| 20260502022508 | 68 | 309 | 2.6 | 9.6 | 0.00 | 0.00 | 0.00 | 70 | 1010.7 |
| 20260502022013 | 68 | 275 | 2.6 | 9.6 | 0.00 | 0.00 | 0.00 | 70 | 1010.9 |
| 20260502021528 | 68 | 250 | 4.3 | 9.6 | 0.00 | 0.00 | 0.00 | 69 | 1010.8 |
| 20260502021011 | 69 | 311 | 4.3 | 10.4 | 0.00 | 0.00 | 0.00 | 68 | 1010.9 |
| 20260502020511 | 69 | 286 | 2.6 | 10.4 | 0.00 | 0.00 | 0.00 | 67 | 1010.8 |
| 20260502020026 | 70 | 296 | 4.3 | 13.9 | 0.00 | 0.00 | 0.00 | 66 | 1011.0 |
| 20260502015509 | 71 | 294 | 4.3 | 13.9 | 0.00 | 0.00 | 0.00 | 64 | 1011.1 |
| 20260502015011 | 71 | 265 | 6.1 | 13.9 | 0.00 | 0.00 | 0.00 | 60 | 1011.1 |
| 20260502014532 | 71 | 57 | 0.9 | 8.7 | 0.00 | 0.00 | 0.00 | 57 | 1010.6 |
| 20260502014010 | 71 | 32 | 1.7 | 8.7 | 0.00 | 0.00 | 0.00 | 57 | 1010.5 |
| 20260502013506 | 71 | 35 | 0.9 | 7.0 | 0.00 | 0.00 | 0.00 | 57 | 1010.7 |
| 20260502013027 | 71 | 52 | 0.9 | 7.0 | 0.00 | 0.00 | 0.00 | 57 | 1010.8 |
| 20260502012515 | 71 | 92 | 1.7 | 7.0 | 0.00 | 0.00 | 0.00 | 57 | 1010.8 |
| 20260502012010 | 71 | 60 | 1.7 | 6.1 | 0.00 | 0.00 | 0.00 | 57 | 1010.7 |
| 20260502011528 | 70 | 62 | 0.9 | 4.3 | 0.00 | 0.00 | 0.00 | 58 | 1010.7 |
| 20260502011009 | 70 | 0 | 0.9 | 4.3 | 0.00 | 0.00 | 0.00 | 57 | 1010.8 |
| 20260502010507 | 70 | 49 | 0.9 | 6.1 | 0.00 | 0.00 | 0.00 | 58 | 1010.8 |
| 20260502010031 | 70 | 49 | 0.9 | 8.7 | 0.00 | 0.00 | 0.00 | 58 | 1010.9 |
| 20260502005510 | 70 | 315 | 1.7 | 11.3 | 0.00 | 0.00 | 0.00 | 58 | 1011.0 |
| 20260502005011 | 70 | 90 | 1.7 | 11.3 | 0.00 | 0.00 | 0.00 | 58 | 1011.0 |
| 20260502004545 | 70 | 44 | 2.6 | 11.3 | 0.00 | 0.00 | 0.00 | 58 | 1011.1 |
| 20260502004008 | 70 | 90 | 0.9 | 8.7 | 0.00 | 0.00 | 0.00 | 59 | 1011.1 |
| 20260502003508 | 69 | 90 | 2.6 | 8.7 | 0.00 | 0.00 | 0.00 | 60 | 1011.0 |
| 20260502003027 | 69 | 90 | 1.7 | 5.2 | 0.00 | 0.00 | 0.00 | 61 | 1011.0 |
| 20260502002510 | 68 | 0 | 0.9 | 5.2 | 0.00 | 0.00 | 0.00 | 63 | 1010.9 |
| 20260502002009 | 68 | 82 | 0.0 | 5.2 | 0.00 | 0.00 | 0.00 | 64 | 1011.0 |
| 20260502001533 | 67 | 84 | 0.9 | 6.1 | 0.00 | 0.00 | 0.00 | 65 | 1011.0 |
| 20260502001008 | 67 | 101 | 1.7 | 6.1 | 0.00 | 0.00 | 0.00 | 65 | 1011.0 |
| 20260502000510 | 67 | 107 | 0.9 | 5.2 | 0.00 | 0.00 | 0.00 | 66 | 1011.1 |
| 20260502000030 | 67 | 107 | 0.9 | 5.2 | 0.00 | 0.00 | 0.00 | 65 | 1011.2 |
| 20260501235509 | 67 | 107 | 0.9 | 5.2 | 0.00 | 0.00 | 0.00 | 66 | 1011.1 |
| 20260501235010 | 68 | 107 | 0.9 | 5.2 | 0.00 | 0.00 | 0.00 | 65 | 1011.2 |
| 20260501234528 | 68 | 0 | 1.7 | 6.1 | 0.00 | 0.00 | 0.00 | 65 | 1011.2 |
| 20260501234013 | 68 | 107 | 0.9 | 6.1 | 0.00 | 0.00 | 0.00 | 64 | 1011.2 |
| 20260501233507 | 69 | 107 | 1.7 | 7.0 | 0.00 | 0.00 | 0.00 | 63 | 1011.2 |
| 20260501233028 | 69 | 110 | 1.7 | 7.0 | 0.00 | 0.00 | 0.00 | 61 | 1011.4 |
| 20260501232508 | 70 | 54 | 1.7 | 7.0 | 0.00 | 0.00 | 0.00 | 59 | 1011.5 |
| 20260501232014 | 70 | 121 | 0.9 | 7.8 | 0.00 | 0.00 | 0.00 | 57 | 1011.7 |
| 20260501231527 | 71 | 82 | 1.7 | 11.3 | 0.00 | 0.00 | 0.00 | 55 | 1011.6 |
| 20260501231010 | 72 | 98 | 2.6 | 13.9 | 0.00 | 0.00 | 0.00 | 52 | 1011.5 |
| 20260501230511 | 73 | 287 | 3.5 | 13.9 | 0.00 | 0.00 | 0.00 | 49 | 1011.6 |
| 20260501230028 | 74 | 26 | 1.7 | 15.6 | 0.00 | 0.00 | 0.00 | 48 | 1011.3 |
| 20260501225511 | 74 | 55 | 3.5 | 15.6 | 0.00 | 0.00 | 0.00 | 47 | 1011.0 |
| 20260501225012 | 75 | 30 | 2.6 | 10.4 | 0.00 | 0.00 | 0.00 | 44 | 1011.0 |
| 20260501224527 | 75 | 52 | 0.9 | 6.1 | 0.00 | 0.00 | 0.00 | 42 | 1011.0 |
| 20260501224007 | 75 | 58 | 1.7 | 6.1 | 0.00 | 0.00 | 0.00 | 41 | 1010.8 |
| 20260501223513 | 75 | 49 | 1.7 | 10.4 | 0.00 | 0.00 | 0.00 | 41 | 1010.8 |
| 20260501223026 | 75 | 44 | 2.6 | 10.4 | 0.00 | 0.00 | 0.00 | 41 | 1010.7 |
| 20260501222507 | 75 | 306 | 1.7 | 7.8 | 0.00 | 0.00 | 0.00 | 41 | 1010.8 |
| 20260501222013 | 75 | 63 | 1.7 | 7.8 | 0.00 | 0.00 | 0.00 | 41 | 1010.7 |
| 20260501221527 | 75 | 26 | 1.7 | 10.4 | 0.00 | 0.00 | 0.00 | 41 | 1010.7 |
| 20260501221008 | 75 | 36 | 0.9 | 10.4 | 0.00 | 0.00 | 0.00 | 41 | 1010.6 |
| 20260501220513 | 75 | 62 | 2.6 | 10.4 | 0.00 | 0.00 | 0.00 | 41 | 1010.5 |
| 20260501220032 | 75 | 324 | 1.7 | 9.6 | 0.00 | 0.00 | 0.00 | 41 | 1010.4 |
| 20260501215508 | 75 | 53 | 3.5 | 9.6 | 0.00 | 0.00 | 0.00 | 41 | 1009.8 |
| 20260501215007 | 75 | 44 | 1.7 | 10.4 | 0.00 | 0.00 | 0.00 | 41 | 1009.6 |
| 20260501214528 | 75 | 46 | 2.6 | 10.4 | 0.00 | 0.00 | 0.00 | 41 | 1009.4 |
| 20260501214014 | 75 | 355 | 3.5 | 11.3 | 0.00 | 0.00 | 0.00 | 41 | 1009.6 |
| 20260501213510 | 75 | 78 | 3.5 | 11.3 | 0.00 | 0.00 | 0.00 | 41 | 1009.5 |
| 20260501213041 | 74 | 32 | 4.3 | 11.3 | 0.00 | 0.00 | 0.00 | 41 | 1009.4 |
| 20260501212511 | 74 | 44 | 3.5 | 11.3 | 0.00 | 0.00 | 0.00 | 41 | 1009.5 |
| 20260501212011 | 74 | 52 | 4.3 | 11.3 | 0.00 | 0.00 | 0.00 | 41 | 1009.5 |
| 20260501211530 | 74 | 98 | 2.6 | 10.4 | 0.00 | 0.00 | 0.00 | 41 | 1009.5 |
| 20260501211012 | 74 | 41 | 1.7 | 10.4 | 0.00 | 0.00 | 0.00 | 41 | 1009.7 |
| 20260501210508 | 74 | 67 | 3.5 | 10.4 | 0.00 | 0.00 | 0.00 | 41 | 1009.7 |
| 20260501210039 | 74 | 57 | 3.5 | 15.6 | 0.00 | 0.00 | 0.00 | 41 | 1009.7 |
| 20260501205515 | 74 | 49 | 2.6 | 15.6 | 0.00 | 0.00 | 0.00 | 41 | 1009.8 |
| 20260501205011 | 74 | 78 | 3.5 | 10.4 | 0.00 | 0.00 | 0.00 | 41 | 1009.6 |
| 20260501204528 | 74 | 342 | 1.7 | 10.4 | 0.00 | 0.00 | 0.00 | 41 | 1009.7 |
| 20260501204012 | 74 | 30 | 4.3 | 10.4 | 0.00 | 0.00 | 0.00 | 41 | 1009.8 |
| 20260501203509 | 74 | 81 | 2.6 | 9.6 | 0.00 | 0.00 | 0.00 | 40 | 1009.8 |
| 20260501203028 | 74 | 40 | 3.5 | 10.4 | 0.00 | 0.00 | 0.00 | 40 | 1010.0 |
| 20260501202508 | 74 | 41 | 3.5 | 10.4 | 0.00 | 0.00 | 0.00 | 40 | 1010.0 |
| 20260501202010 | 74 | 84 | 3.5 | 13.9 | 0.00 | 0.00 | 0.00 | 40 | 1009.9 |
| 20260501201531 | 74 | 46 | 4.3 | 13.9 | 0.00 | 0.00 | 0.00 | 40 | 1010.0 |
| 20260501201010 | 74 | 118 | 4.3 | 10.4 | 0.00 | 0.00 | 0.00 | 40 | 1010.1 |
| 20260501200510 | 74 | 52 | 2.6 | 11.3 | 0.00 | 0.00 | 0.00 | 40 | 1010.1 |
| 20260501200028 | 74 | 18 | 3.5 | 11.3 | 0.00 | 0.00 | 0.00 | 40 | 1010.3 |
| 20260501195511 | 74 | 48 | 2.6 | 11.3 | 0.00 | 0.00 | 0.00 | 40 | 1010.2 |
| 20260501195011 | 74 | 88 | 4.3 | 11.3 | 0.00 | 0.00 | 0.00 | 40 | 1010.2 |
| 20260501194535 | 74 | 47 | 3.5 | 12.2 | 0.00 | 0.00 | 0.00 | 40 | 1010.2 |
| 20260501194011 | 74 | 53 | 3.5 | 12.2 | 0.00 | 0.00 | 0.00 | 40 | 1010.1 |
| 20260501193510 | 74 | 101 | 3.5 | 12.2 | 0.00 | 0.00 | 0.00 | 40 | 1010.3 |
| 20260501193031 | 74 | 75 | 3.5 | 12.2 | 0.00 | 0.00 | 0.00 | 40 | 1010.2 |
| 20260501192511 | 74 | 35 | 3.5 | 12.2 | 0.00 | 0.00 | 0.00 | 39 | 1010.2 |
| 20260501192011 | 74 | 54 | 3.5 | 10.4 | 0.00 | 0.00 | 0.00 | 39 | 1010.3 |
| 20260501191531 | 74 | 60 | 2.6 | 9.6 | 0.00 | 0.00 | 0.00 | 39 | 1010.2 |
| 20260501191011 | 75 | 53 | 3.5 | 13.9 | 0.00 | 0.00 | 0.00 | 39 | 1010.3 |
| 20260501190510 | 74 | 66 | 3.5 | 13.9 | 0.00 | 0.00 | 0.00 | 39 | 1010.3 |
| 20260501190028 | 74 | 56 | 4.3 | 13.9 | 0.00 | 0.00 | 0.00 | 39 | 1010.3 |
| 20260501185511 | 74 | 70 | 3.5 | 10.4 | 0.00 | 0.00 | 0.00 | 39 | 1010.3 |
| 20260501185011 | 74 | 112 | 2.6 | 11.3 | 0.00 | 0.00 | 0.00 | 39 | 1010.3 |
| 20260501184530 | 74 | 0 | 4.3 | 11.3 | 0.00 | 0.00 | 0.00 | 39 | 1010.4 |
| 20260501184014 | 74 | 89 | 3.5 | 11.3 | 0.00 | 0.00 | 0.00 | 39 | 1010.3 |
| 20260501183513 | 74 | 44 | 2.6 | 8.7 | 0.00 | 0.00 | 0.00 | 40 | 1010.6 |
| 20260501183028 | 74 | 49 | 2.6 | 8.7 | 0.00 | 0.00 | 0.00 | 39 | 1010.7 |
| 20260501182512 | 74 | 70 | 2.6 | 8.7 | 0.00 | 0.00 | 0.00 | 40 | 1010.6 |
| 20260501182009 | 74 | 37 | 3.5 | 8.7 | 0.00 | 0.00 | 0.00 | 39 | 1010.6 |
| 20260501181532 | 74 | 63 | 2.6 | 8.7 | 0.00 | 0.00 | 0.00 | 39 | 1010.7 |
| 20260501181011 | 74 | 34 | 1.7 | 8.7 | 0.00 | 0.00 | 0.00 | 39 | 1010.8 |
| 20260501180509 | 74 | 35 | 3.5 | 10.4 | 0.00 | 0.00 | 0.00 | 39 | 1010.8 |
| 20260501180042 | 74 | 77 | 3.5 | 10.4 | 0.00 | 0.00 | 0.00 | 39 | 1010.8 |